This is the latest recevied weather packets stored in our database for station/object N6RDS. If no packets are shown the sender has not sent any weather packets the latest 10 day(s).
| Time | Temp. | Humidity | Pressure | Rain* | Wind** | Luminosity | Snow |
|---|---|---|---|---|---|---|---|
| 1777332053 | 12.78° C | 26% | 1020.1 hPa | 0 mm | - | 152 W/m² | - |
| 1777331751 | 12.78° C | 26% | 1020.2 hPa | 0 mm | - | 52 W/m² | - |
| 1777331447 | 13.33° C | 26% | 1020.4 hPa | 0 mm | - | 45 W/m² | - |
| 1777331145 | 13.33° C | 25% | 1020 hPa | 0 mm | - | 96 W/m² | - |
| 1777330842 | 13.33° C | 25% | 1020 hPa | 0 mm | - | 205 W/m² | - |
| 1777330539 | 13.89° C | 26% | 1020.1 hPa | 0 mm | - | 396 W/m² | - |
| 1777330236 | 13.33° C | 25% | 1020 hPa | 0 mm | - | 367 W/m² | - |
| 1777329934 | 13.89° C | 25% | 1019.9 hPa | 0 mm | - | 231 W/m² | - |
| 1777329633 | 13.89° C | 25% | 1019.7 hPa | 0 mm | - | 386 W/m² | - |
| 1777329331 | 13.33° C | 26% | 1020.1 hPa | 0 mm | - | 223 W/m² | - |
| 1777329028 | 14.44° C | 25% | 1020 hPa | 0 mm | - | 293 W/m² | - |
| 1777328726 | 13.89° C | 24% | 1020 hPa | 0 mm | - | 418 W/m² | - |
| 1777328423 | 13.89° C | 24% | 1020.1 hPa | 0 mm | - | 360 W/m² | - |
| 1777328122 | 13.89° C | 24% | 1020.4 hPa | 0 mm | - | 550 W/m² | - |
| 1777327820 | 13.89° C | 25% | 1020.4 hPa | 0 mm | - | 423 W/m² | - |
| 1777327517 | 13.89° C | 24% | 1020.1 hPa | 0 mm | - | 303 W/m² | - |
| 1777327214 | 14.44° C | 23% | 1020.1 hPa | 0 mm | - | 333 W/m² | - |
| 1777326912 | 13.89° C | 23% | 1020.4 hPa | 0 mm | - | 477 W/m² | - |
| 1777326608 | 13.89° C | 23% | 1020.4 hPa | 0 mm | - | 541 W/m² | - |
| 1777326306 | 13.89° C | 25% | 1020.5 hPa | 0 mm | - | 628 W/m² | - |
| 1777326003 | 14.44° C | 24% | 1020.5 hPa | 0 mm | - | 387 W/m² | - |
| 1777325701 | 14.44° C | 23% | 1020.6 hPa | 0 mm | - | 530 W/m² | - |
| 1777325399 | 12.78° C | 24% | 1020.6 hPa | 0 mm | - | 661 W/m² | - |
| 1777325097 | 13.33° C | 25% | 1020.5 hPa | 0 mm | - | 386 W/m² | - |
| 1777324792 | 13.33° C | 23% | 1020.8 hPa | 0 mm | - | 274 W/m² | - |
* Rain latest hour (hover to see other rain measurements)
** Current wind speed in m/s (hover to see current wind gust speed)